User: anonymous   Login
Location: Kuffner-Sternwarte
(48.2130°N, 16.2960°E)
Time: 06:24:32
(UTC+02:00)
Language:

YUBILEINY - Orbit

View from above orbital plane
View from above orbital plane
View from above satellite
View from above satellite

Ground track
Ground track

The orbit data is extracted from the following two-line orbital elements,

1 32953U 08025A   19175.68090375  .00000021  00000-0  75656-4 0  9994
2 32953  82.5010 141.0397 0020316 113.7560 246.5653 12.43090131503058
Epoch (UTC): 24 June 2019 16:20:30
Eccentricity: 0.0020316
inclination: 82.5010°
perigee height: 1477 km
apogee height: 1509 km
right ascension of ascending node: 141.0397°
argument of perigee: 113.7560°
revolutions per day: 12.43090131
mean anomaly at epoch: 246.5653°
orbit number at epoch: 50305

The dashed part of the orbit path shows where the satellite is in the earth's shadow,  

DLR